Weather History for Wrangell, AK

Change the Weather History Date:

Wednesday, November 10, 2010

  Actual Average Record
Temperature  
Mean Temperature 36 °F -  
Max Temperature 41 °F 42 °F 58 °F (1952)
Min Temperature 32 °F 32 °F 15 °F (1973)
Degree Days  
Heating Degree Days 28    
Moisture  
Dew Point 31 °F    
Average Humidity 81    
Maximum Humidity 93    
Minimum Humidity 70    
Precipitation  
Precipitation 0.00 in - - ()
Sea Level Pressure  
Sea Level Pressure 30.11 in    
Wind  
Wind Speed 6 mph (ESE)    
Max Wind Speed 14 mph    
Max Gust Speed -    
Visibility 10 miles    
Events      
Averages and records for this station are not official NWS values.
T = Trace of Precipitation, MM = Missing Value Source: NWS Daily Summary

Daily Weather History Graph

Daily Weather History Graph

Search for Another Location

Airport:

Trip Planner

Search our weather history database for the weather conditions in past years. The results will help you decide how hot, cold, wet, or windy it might be!

Date:

Astronomy

Nov. 10, 2010 Rise Set
Actual Time 7:18 AM AKST 3:48 PM AKST
Civil Twilight 6:36 AM AKST 4:29 PM AKST
Nautical Twilight 5:50 AM AKST 5:15 PM AKST
Astronomical Twilight 5:06 AM AKST 5:59 PM AKST
Moon 12:07 PM AKST (11/10) 7:40 PM AKST (11/10)
Length of Visible Light 9h 53m
Length of Day
8h 30m
Waxing Crescent, 24% of the Moon is Illuminated
Nov 10
Waxing Crescent
Nov 13
First Quarter
Nov 21
Full
Nov 28
Last Quarter
Dec 5
New

Hourly Weather History & Observations

Time (AKST) Temp. Windchill Dew Point Humidity Pressure Visibility Wind Dir Wind Speed Gust Speed Precip Events Conditions
12:16 AM 33.8 °F 28.6 °F 30.2 °F 87% 30.10 in 10.0 mi SE 5.8 mph - N/A   Partly Cloudy
12:36 AM 33.8 °F 28.6 °F 30.2 °F 87% 30.10 in 10.0 mi SSE 5.8 mph - N/A   Clear
12:56 AM 33.8 °F 29.6 °F 30.2 °F 87% 30.10 in 10.0 mi SSE 4.6 mph - N/A   Clear
1:16 AM 33.8 °F 27.7 °F 30.2 °F 87% 30.10 in 10.0 mi SE 6.9 mph - N/A   Clear
1:36 AM 32.0 °F 27.5 °F 30.2 °F 93% 30.10 in 10.0 mi SE 4.6 mph - N/A   Clear
1:56 AM 33.8 °F 29.6 °F 30.2 °F 87% 30.11 in 10.0 mi SE 4.6 mph - N/A   Scattered Clouds
2:16 AM 33.8 °F 29.6 °F 30.2 °F 87% 30.10 in 10.0 mi SSE 4.6 mph - N/A   Scattered Clouds
2:36 AM 33.8 °F 27.7 °F 30.2 °F 87% 30.10 in 10.0 mi SE 6.9 mph - N/A   Partly Cloudy
2:56 AM 33.8 °F 27.0 °F 30.2 °F 87% 30.10 in 10.0 mi SE 8.1 mph - N/A   Partly Cloudy
3:16 AM 33.8 °F 27.0 °F 30.2 °F 87% 30.10 in 10.0 mi ESE 8.1 mph - N/A   Scattered Clouds
3:36 AM 33.8 °F 26.4 °F 30.2 °F 87% 30.11 in 10.0 mi SE 9.2 mph - N/A   Mostly Cloudy
3:56 AM 33.8 °F 28.6 °F 32.0 °F 93% 30.12 in 10.0 mi ESE 5.8 mph - N/A   Overcast
4:16 AM 33.8 °F 29.6 °F 30.2 °F 87% 30.12 in 10.0 mi SSE 4.6 mph - N/A   Mostly Cloudy
4:36 AM 33.8 °F 28.6 °F 30.2 °F 87% 30.12 in 10.0 mi SE 5.8 mph - N/A   Scattered Clouds
4:56 AM 33.8 °F 28.6 °F 30.2 °F 87% 30.12 in 10.0 mi SE 5.8 mph - N/A   Clear
5:16 AM 33.8 °F 27.7 °F 30.2 °F 87% 30.12 in 10.0 mi SE 6.9 mph - N/A   Clear
5:36 AM 33.8 °F 27.7 °F 30.2 °F 87% 30.12 in 10.0 mi SE 6.9 mph - N/A   Partly Cloudy
5:56 AM 33.8 °F 27.7 °F 30.2 °F 87% 30.12 in 10.0 mi SE 6.9 mph - N/A   Partly Cloudy
6:16 AM 33.8 °F 28.6 °F 30.2 °F 87% 30.13 in 10.0 mi SSE 5.8 mph - N/A   Partly Cloudy
6:36 AM 33.8 °F 25.8 °F 30.2 °F 87% 30.13 in 10.0 mi East 10.4 mph - N/A   Partly Cloudy
6:56 AM 33.8 °F 26.4 °F 30.2 °F 87% 30.14 in 10.0 mi ESE 9.2 mph - N/A   Partly Cloudy
7:16 AM 33.8 °F 27.0 °F 30.2 °F 87% 30.14 in 10.0 mi SE 8.1 mph - N/A   Partly Cloudy
7:36 AM 33.8 °F 27.7 °F 30.2 °F 87% 30.14 in 10.0 mi ESE 6.9 mph - N/A   Partly Cloudy
7:56 AM 33.8 °F 30.8 °F 30.2 °F 87% 30.15 in 10.0 mi SE 3.5 mph - N/A   Scattered Clouds
8:16 AM 33.8 °F 29.6 °F 30.2 °F 87% 30.15 in 10.0 mi SSE 4.6 mph - N/A   Scattered Clouds
8:36 AM 33.8 °F 27.7 °F 30.2 °F 87% 30.15 in 10.0 mi East 6.9 mph - N/A   Scattered Clouds
8:56 AM 33.8 °F 27.7 °F 30.2 °F 87% 30.14 in 10.0 mi ESE 6.9 mph - N/A   Scattered Clouds
9:16 AM 35.6 °F 29.9 °F 32.0 °F 87% 30.14 in 10.0 mi SE 6.9 mph - N/A   Scattered Clouds
9:36 AM 35.6 °F 28.6 °F 30.2 °F 81% 30.14 in 10.0 mi SE 9.2 mph - N/A   Scattered Clouds
9:56 AM 35.6 °F 30.7 °F 30.2 °F 81% 30.15 in 10.0 mi ESE 5.8 mph - N/A   Scattered Clouds
10:16 AM 37.4 °F 30.8 °F 32.0 °F 81% 30.14 in 10.0 mi ESE 9.2 mph - N/A   Scattered Clouds
10:36 AM 37.4 °F 32.1 °F 32.0 °F 81% 30.13 in 10.0 mi East 6.9 mph - N/A   Scattered Clouds
10:56 AM 37.4 °F 32.1 °F 32.0 °F 81% 30.13 in 10.0 mi ESE 6.9 mph - N/A   Scattered Clouds
11:16 AM 37.4 °F 32.1 °F 30.2 °F 75% 30.12 in 10.0 mi ESE 6.9 mph - N/A   Scattered Clouds
11:36 AM 39.2 °F 33.0 °F 32.0 °F 75% 30.12 in 10.0 mi ESE 9.2 mph - N/A   Scattered Clouds
11:56 AM 39.2 °F 33.0 °F 32.0 °F 75% 30.11 in 10.0 mi East 9.2 mph - N/A   Scattered Clouds
12:16 PM 39.2 °F 35.0 °F 32.0 °F 75% 30.11 in 10.0 mi SE 5.8 mph - N/A   Scattered Clouds
12:36 PM 39.2 °F 35.9 °F 32.0 °F 75% 30.11 in 10.0 mi NE 4.6 mph - N/A   Scattered Clouds
12:56 PM 37.4 °F - 30.2 °F 75% 30.10 in 10.0 mi Calm Calm - N/A   Scattered Clouds
1:16 PM 39.2 °F - 30.2 °F 70% 30.10 in 10.0 mi Calm Calm - N/A   Scattered Clouds
1:36 PM 41.0 °F 35.8 °F 32.0 °F 70% 30.09 in 10.0 mi East 8.1 mph - N/A   Scattered Clouds
1:56 PM 39.2 °F 32.5 °F 32.0 °F 75% 30.09 in 10.0 mi East 10.4 mph - N/A   Scattered Clouds
2:16 PM 39.2 °F 35.0 °F 32.0 °F 75% 30.08 in 10.0 mi ENE 5.8 mph - N/A   Scattered Clouds
2:36 PM 39.2 °F 32.5 °F 32.0 °F 75% 30.07 in 10.0 mi East 10.4 mph - N/A   Scattered Clouds
2:56 PM 39.2 °F 37.0 °F 30.2 °F 70% 30.08 in 10.0 mi East 3.5 mph - N/A   Mostly Cloudy
3:16 PM 39.2 °F - 30.2 °F 70% 30.08 in 10.0 mi Calm Calm - N/A   Mostly Cloudy
3:36 PM 39.2 °F 33.6 °F 32.0 °F 75% 30.07 in 10.0 mi East 8.1 mph - N/A   Mostly Cloudy
3:56 PM 39.2 °F 32.5 °F 32.0 °F 75% 30.06 in 10.0 mi East 10.4 mph - N/A   Mostly Cloudy
4:16 PM 39.2 °F 32.5 °F 32.0 °F 75% 30.06 in 10.0 mi East 10.4 mph - N/A   Mostly Cloudy
4:36 PM 39.2 °F 31.2 °F 32.0 °F 75% 30.05 in 10.0 mi East 13.8 mph - N/A   Mostly Cloudy
4:56 PM 39.2 °F 33.0 °F 32.0 °F 75% 30.05 in 10.0 mi ESE 9.2 mph - N/A   Clear
5:16 PM 39.2 °F 33.0 °F 30.2 °F 70% 30.05 in 10.0 mi East 9.2 mph - N/A   Clear
5:36 PM 39.2 °F - 30.2 °F 70% 30.05 in 10.0 mi Calm Calm - N/A   Clear
5:56 PM 39.2 °F 35.0 °F 30.2 °F 70% 30.05 in 10.0 mi East 5.8 mph - N/A   Clear
6:16 PM 39.2 °F 34.2 °F 30.2 °F 70% 30.04 in 10.0 mi ENE 6.9 mph - N/A   Clear
6:36 PM 39.2 °F 33.0 °F 32.0 °F 75% 30.04 in 10.0 mi East 9.2 mph - N/A   Clear
6:56 PM 39.2 °F 34.2 °F 32.0 °F 75% 30.03 in 10.0 mi ESE 6.9 mph - N/A   Overcast
7:16 PM 39.2 °F 34.2 °F 30.2 °F 70% 30.03 in 10.0 mi East 6.9 mph - N/A   Overcast
7:36 PM 39.2 °F 33.6 °F 32.0 °F 75% 30.02 in 10.0 mi ESE 8.1 mph - N/A   Overcast
7:56 PM 39.2 °F 35.0 °F 32.0 °F 75% 30.03 in 10.0 mi SE 5.8 mph - N/A   Overcast
8:16 PM 39.2 °F 33.0 °F 30.2 °F 70% 30.02 in 10.0 mi East 9.2 mph 16.1 mph N/A   Overcast
8:36 PM 41.0 °F 32.5 °F 30.2 °F 65% 29.99 in 10.0 mi ENE 17.3 mph - N/A   Overcast
8:56 PM 41.0 °F 33.1 °F 30.2 °F 65% 29.99 in 10.0 mi East 15.0 mph 20.7 mph N/A   Overcast
9:16 PM 41.0 °F 34.3 °F 30.2 °F 65% 29.99 in 10.0 mi East 11.5 mph - N/A   Overcast
9:36 PM 41.0 °F 35.8 °F 30.2 °F 65% 30.00 in 10.0 mi East 8.1 mph - N/A   Overcast
9:56 PM 41.0 °F 38.0 °F 30.2 °F 65% 30.00 in 10.0 mi SSW 4.6 mph - N/A   Overcast
10:16 PM 39.2 °F 37.0 °F 30.2 °F 70% 30.00 in 10.0 mi SE 3.5 mph - N/A   Overcast
10:36 PM 41.0 °F 32.8 °F 30.2 °F 65% 30.00 in 10.0 mi South 16.1 mph 19.6 mph N/A   Overcast
10:56 PM 42.8 °F 37.0 °F 30.2 °F 61% 30.00 in 10.0 mi ESE 10.4 mph 17.3 mph N/A   Overcast
11:16 PM 39.2 °F 29.8 °F 30.2 °F 70% 30.00 in 7.0 mi SE 18.4 mph 25.3 mph N/A   Overcast
11:36 PM 39.2 °F 31.2 °F 33.8 °F 81% 29.99 in 8.0 mi SE 13.8 mph - N/A   Overcast
11:56 PM 39.2 °F 31.6 °F 33.8 °F 81% 29.98 in 9.0 mi ESE 12.7 mph - N/A   Overcast